| time (UTC) | temp C | wind direction | speed KPH | gust KPH | rain 1hr cm | rain 24hr cm | rain mn cm | humidity % | barometer mb |
| 20260507065947 | 11 | 233 | 17.7 | 29.0 | 0.00 | 0.00 | 0.00 | 77 | 1012.0 |
| 20260507064438 | 11 | 244 | 12.9 | 24.1 | 0.00 | 0.00 | 0.00 | 78 | 1011.9 |
| 20260507062933 | 10 | 222 | 9.7 | 20.9 | 0.00 | 0.00 | 0.00 | 80 | 1011.8 |
| 20260507061429 | 10 | 234 | 11.3 | 17.7 | 0.00 | 0.00 | 0.00 | 83 | 1011.6 |
| 20260507055919 | 10 | 167 | 9.7 | 19.3 | 0.00 | 0.00 | 0.00 | 85 | 1011.5 |
| 20260507054416 | 10 | 240 | 12.9 | 12.9 | 0.00 | 0.00 | 0.00 | 86 | 1011.5 |
| 20260507052915 | 9 | 209 | 6.4 | 9.7 | 0.00 | 0.00 | 0.00 | 86 | 1011.2 |
| 20260507051415 | 9 | 227 | 12.9 | 16.1 | 0.00 | 0.00 | 0.00 | 86 | 1010.9 |
| 20260507045907 | 8 | 241 | 9.7 | 9.7 | 0.00 | 0.00 | 0.00 | 87 | 1010.6 |
| 20260507044402 | 8 | 234 | 8.0 | 12.9 | 0.00 | 0.00 | 0.00 | 89 | 1010.5 |
| 20260507042901 | 8 | 223 | 3.2 | 6.4 | 0.00 | 0.00 | 0.00 | 91 | 1010.4 |
| 20260507041353 | 7 | 196 | 3.2 | 3.2 | 0.00 | 0.00 | 0.00 | 92 | 1010.8 |
| 20260507035844 | 7 | 203 | 3.2 | 3.2 | 0.00 | 0.00 | 0.00 | 91 | 1010.7 |
| 20260507034336 | 7 | 203 | 1.6 | 1.6 | 0.00 | 0.00 | 0.00 | 90 | 1010.7 |
| 20260507032832 | 7 | 203 | 1.6 | 1.6 | 0.00 | 0.00 | 0.00 | 89 | 1010.6 |
| 20260507031327 | 8 | 203 | 0.0 | 3.2 | 0.00 | 0.00 | 0.00 | 89 | 1010.6 |
| 20260507025815 | 8 | 236 | 3.2 | 4.8 | 0.00 | 0.00 | 0.00 | 88 | 1010.4 |
| 20260507024309 | 8 | 230 | 8.0 | 8.0 | 0.00 | 0.00 | 0.00 | 88 | 1010.4 |
| 20260507022808 | 8 | 212 | 3.2 | 3.2 | 0.00 | 0.00 | 0.00 | 88 | 1010.2 |
| 20260507021255 | 8 | 212 | 1.6 | 4.8 | 0.00 | 0.00 | 0.00 | 88 | 1009.4 |
| 20260507015741 | 8 | 196 | 3.2 | 6.4 | 0.00 | 0.00 | 0.00 | 88 | 1009.3 |
| 20260507014234 | 8 | 217 | 1.6 | 6.4 | 0.00 | 0.00 | 0.00 | 87 | 1009.4 |
| 20260507012727 | 8 | 220 | 6.4 | 6.4 | 0.00 | 0.00 | 0.00 | 87 | 1009.4 |
| 20260507011224 | 9 | 195 | 1.6 | 6.4 | 0.00 | 0.00 | 0.00 | 86 | 1009.3 |
| 20260507005723 | 9 | 213 | 3.2 | 3.2 | 0.00 | 0.00 | 0.00 | 86 | 1009.3 |
| 20260507004211 | 9 | 206 | 3.2 | 3.2 | 0.00 | 0.00 | 0.00 | 85 | 1009.2 |
| 20260507002702 | 10 | 206 | 1.6 | 6.4 | 0.00 | 0.00 | 0.00 | 84 | 1009.1 |
| 20260507001200 | 10 | 199 | 12.9 | 12.9 | 0.00 | 0.00 | 0.00 | 84 | 1009.2 |
| 20260506235648 | 10 | 219 | 3.2 | 8.0 | 0.00 | 0.00 | 0.00 | 85 | 1009.2 |
| 20260506234139 | 10 | 239 | 3.2 | 9.7 | 0.00 | 0.00 | 0.00 | 84 | 1009.3 |
| 20260506232638 | 10 | 209 | 3.2 | 3.2 | 0.00 | 0.00 | 0.00 | 83 | 1009.3 |
| 20260506231138 | 10 | 236 | 1.6 | 9.7 | 0.00 | 0.00 | 0.00 | 83 | 1009.2 |
| 20260506225637 | 10 | 213 | 4.8 | 9.7 | 0.00 | 0.00 | 0.00 | 83 | 1009.1 |
| 20260506224125 | 10 | 234 | 6.4 | 9.7 | 0.00 | 0.00 | 0.00 | 83 | 1009.1 |
| 20260506222617 | 10 | 215 | 3.2 | 4.8 | 0.00 | 0.00 | 0.00 | 82 | 1009.0 |
| 20260506221108 | 10 | 209 | 3.2 | 6.4 | 0.00 | 0.00 | 0.00 | 81 | 1008.9 |
| 20260506215603 | 10 | 237 | 14.5 | 14.5 | 0.00 | 0.58 | 0.00 | 81 | 1008.8 |
| 20260506214055 | 10 | 246 | 9.7 | 14.5 | 0.00 | 0.58 | 0.00 | 81 | 1008.8 |
| 20260506212548 | 11 | 220 | 8.0 | 12.9 | 0.00 | 0.58 | 0.00 | 82 | 1008.6 |
| 20260506211041 | 11 | 243 | 3.2 | 12.9 | 0.00 | 0.58 | 0.00 | 82 | 1008.5 |
| 20260506205541 | 11 | 224 | 9.7 | 12.9 | 0.00 | 0.58 | 0.00 | 82 | 1008.4 |
| 20260506204030 | 11 | 227 | 8.0 | 14.5 | 0.00 | 0.58 | 0.00 | 82 | 1008.4 |
| 20260506202523 | 11 | 195 | 9.7 | 9.7 | 0.00 | 0.58 | 0.00 | 81 | 1008.3 |
| 20260506201048 | 11 | 234 | 9.7 | 9.7 | 0.00 | 0.58 | 0.00 | 81 | 1008.5 |
| 20260506151738 | 12 | 243 | 4.8 | 8.0 | 0.28 | 0.28 | 0.00 | ||
| 20260506151735 | 12 | 243 | 4.8 | 8.0 | 0.28 | 0.28 | 0.00 | 86 | 1005.2 |
| 20260506150530 | 13 | 256 | 9.7 | 16.1 | 0.46 | 0.23 | 0.00 | 83 | 1005.2 |
| 20260506145030 | 15 | 220 | 25.7 | 32.2 | 0.81 | 0.13 | 0.00 | 73 | 1004.8 |
| 20260506143530 | 18 | 224 | 17.7 | 19.3 | 0.00 | 0.00 | 0.00 | 64 | 1003.5 |
| 20260506142022 | 19 | 318 | 8.0 | 8.0 | 0.00 | 0.00 | 0.00 | 53 | 1002.9 |
| 20260506140518 | 20 | 0 | 4.8 | 9.7 | 0.00 | 0.00 | 0.00 | 50 | 1002.6 |
| 20260506135018 | 21 | 21 | 9.7 | 9.7 | 0.00 | 0.00 | 0.00 | 49 | 1002.5 |
| 20260506133548 | 21 | 32 | 9.7 | 9.7 | 0.00 | 0.00 | 0.00 | 48 | 1002.5 |
| 20260506133517 | 21 | 32 | 9.7 | 9.7 | 0.00 | 0.00 | 0.00 | 48 | 1002.5 |
| 20260506132011 | 20 | 8 | 9.7 | 9.7 | 0.00 | 0.00 | 0.00 | 51 | 1002.8 |
| 20260506130505 | 20 | 343 | 9.7 | 9.7 | 0.00 | 0.00 | 0.00 | 50 | 1003.0 |
| 20260506124952 | 20 | 28 | 6.4 | 11.3 | 0.00 | 0.00 | 0.00 | 50 | 1003.1 |
| 20260506123443 | 20 | 0 | 4.8 | 4.8 | 0.00 | 0.00 | 0.00 | 49 | 1003.1 |
| 20260506121941 | 20 | 102 | 6.4 | 6.4 | 0.00 | 0.00 | 0.00 | 52 | 1003.6 |
| 20260506120431 | 20 | 14 | 1.6 | 8.0 | 0.00 | 0.00 | 0.00 | 52 | 1003.6 |
| 20260506114920 | 20 | 76 | 6.4 | 9.7 | 0.00 | 0.00 | 0.00 | 51 | 1003.7 |
| 20260506113424 | 19 | 69 | 4.8 | 6.4 | 0.00 | 0.00 | 0.00 | 50 | 1004.0 |
| 20260506113419 | 19 | 69 | 4.8 | 6.4 | 0.00 | 0.00 | 0.00 | 50 | 1004.0 |
| 20260506111920 | 19 | 79 | 1.6 | 3.2 | 0.00 | 0.00 | 0.00 | 51 | 1004.1 |
| 20260506110418 | 19 | 352 | 9.7 | 9.7 | 0.00 | 0.00 | 0.00 | 50 | 1004.1 |
| 20260506104913 | 18 | 4 | 6.4 | 8.0 | 0.00 | 0.00 | 0.00 | 49 | 1004.6 |
| 20260506103401 | 18 | 0 | 1.6 | 8.0 | 0.00 | 0.00 | 0.00 | 55 | 1004.8 |
| 20260506101857 | 18 | 356 | 3.2 | 6.4 | 0.00 | 0.00 | 0.00 | 54 | 1004.8 |
| 20260506100358 | 18 | 0 | 9.7 | 9.7 | 0.00 | 0.00 | 0.00 | 55 | 1005.1 |
| 20260506094851 | 18 | 1 | 1.6 | 1.6 | 0.00 | 0.00 | 0.00 | 58 | 1004.9 |
| 20260506093340 | 17 | 59 | 6.4 | 6.4 | 0.00 | 0.00 | 0.00 | 58 | 1005.0 |
| 20260506091834 | 17 | 20 | 3.2 | 3.2 | 0.00 | 0.00 | 0.00 | 58 | 1005.0 |
| 20260506090325 | 17 | 16 | 6.4 | 6.4 | 0.00 | 0.00 | 0.00 | 59 | 1005.0 |
| 20260506084824 | 17 | 97 | 1.6 | 6.4 | 0.00 | 0.00 | 0.00 | 60 | 1005.2 |
| 20260506083319 | 16 | 62 | 1.6 | 1.6 | 0.00 | 0.00 | 0.00 | 61 | 1005.3 |
| 20260506081816 | 16 | 344 | 4.8 | 8.0 | 0.00 | 0.00 | 0.00 | 62 | 1005.4 |
| 20260506080308 | 15 | 239 | 3.2 | 3.2 | 0.00 | 0.00 | 0.00 | 62 | 1005.5 |
| 20260506073305 | 14 | 277 | 1.6 | 1.6 | 0.00 | 0.00 | 0.00 | 69 | 1006.0 |
| 20260506071759 | 13 | 330 | 0.0 | 1.6 | 0.00 | 0.00 | 0.00 | 74 | 1006.0 |
| 20260506070251 | 12 | 247 | 3.2 | 8.0 | 0.00 | 0.00 | 0.00 | 81 | 1006.0 |